#timestamp,LO_Frequency,Hit,StdDev 
1661493615.4,286047002.8,N
1661493635.3,286047000.4,N
1661493655.1,286047000.7,N
1661493675.8,286047001.0,N
1661493695.7,286046998.2,N
1661493715.5,286047001.2,N
1661493735.4,286047000.5,N
1661493755.2,286047000.5,N
1661493775.0,286047000.7,N
1661493775.9,286047000.7,N
1661493795.8,286047000.3,N
1661493815.6,286047000.4,N
1661493835.4,286047001.1,N
1661493855.3,286047000.8,N
1661493875.1,286047000.8,N
1661493895.9,286047000.6,N
1661493915.7,286047000.4,N
1661493935.5,286047000.5,N
1661493955.4,286047000.6,N
1661493975.2,286047000.4,N
1661493995.0,286047000.4,N
1661493995.9,286047000.4,N
1661494015.8,286046998.2,N
1661494035.6,286047001.2,N
1661494055.5,286046998.3,N
1661494075.3,286047001.2,N
1661494095.1,286046998.2,N
1661494115.9,286046998.2,N
1661494135.7,286046998.4,N
1661494155.5,286046998.3,N
1661494175.4,286047000.8,N
1661494195.2,286047001.1,N
1661494215.1,286047000.9,N
1661494246.0,286047000.4,E
1661494255.0,286047000.7,N
1661494255.9,286047000.7,P
1661494275.8,286047000.5,P
1661494295.6,286047000.3,N
1661494315.4,286046999.0,Y
1661494335.3,286046999.3,P
1661494355.1,286046999.4,N
1661494375.8,286046999.5,N
1661494395.7,286046997.6,Y
1661494415.5,286046997.9,P
1661494435.4,286046996.9,P
1661494455.2,286046997.8,N
1661494475.0,286046995.6,Y
1661494476.0,286046995.6,P
1661494495.8,286046996.9,N
1661494515.6,286046997.1,N
1661494535.5,286046995.3,Y
1661494555.3,286046999.6,P
1661494575.1,286046996.5,N
1661494595.9,286046996.7,N
1661494615.7,286046996.7,N
1661494635.6,286046997.8,N
1661494655.4,286046997.6,N
1661494675.2,286046997.1,N
1661494695.1,286046996.9,Y
1661494696.0,286046996.9,P
1661494715.8,286047001.2,P
1661494735.6,286046998.1,N
1661494755.5,286047000.5,N
1661494775.3,286046998.1,N
1661494795.2,286047000.7,N
1661494815.9,286047000.0,N
1661494835.7,286047002.8,N
1661494855.6,286047002.8,N
1661494875.4,286047002.5,N
1661494895.2,286047001.7,N
1661494915.1,286047001.6,N
1661494916.0,286047001.6,N
1661494935.8,286047002.3,N
1661494955.7,286047002.3,N
1661494975.5,286047002.7,N
1661494995.3,286047002.1,N
1661495015.2,286047001.6,N
1661495035.0,286047001.8,N
1661495035.9,286047001.8,N
1661495055.8,286047001.7,N
1661495075.6,286047003.9,N
1661495095.4,286047004.2,N
1661495115.3,286047003.6,N
1661495135.1,286047001.3,N
1661495155.8,286047003.6,N
1661495175.7,286047003.7,N
1661495195.5,286047003.8,N
1661495215.4,286047003.8,N
1661495235.2,286047003.4,N
1661495255.0,286047003.8,N
1661495255.9,286047003.8,N
1661495275.8,286047003.8,N
1661495295.6,286047003.0,N
1661495315.4,286047003.8,N
1661495335.3,286047004.1,Y
1661495355.1,286047001.0,P
1661495375.9,286047001.0,N
1661495395.7,286047000.6,N
1661495415.5,286046999.9,N
1661495435.4,286047002.7,N
1661495455.2,286047000.6,N
1661495475.0,286047000.1,N
1661495475.9,286047000.1,N
1661495495.8,286046999.9,N
1661495515.6,286047001.9,N
1661495535.5,286047001.5,N
1661495555.3,286047004.0,Y
1661495575.1,286047002.4,P
1661495595.9,286047002.7,P
1661495615.7,286046999.7,N
1661495635.6,286047000.4,N
1661495655.4,286047000.2,N
1661495675.2,286047000.1,N
1661495695.1,286047000.3,N
1661495696.0,286047000.3,N
1661495715.8,286046999.8,N
1661495735.6,286046998.2,N
1661495755.5,286047001.0,N
1661495775.3,286047000.4,N
1661495795.2,286047000.6,N
1661495815.9,286047002.5,N
1661495835.7,286047002.5,N
1661495855.6,286047002.4,N
1661495875.7,286047001.4,N
1661495895.5,286047001.7,N
1661495915.4,286047002.6,N
1661495935.2,286047002.7,N
1661495955.1,286046999.7,N
1661495956.0,286046999.7,N
1661495975.8,286046999.8,N
1661495995.6,286047001.9,N
1661496015.5,286047002.7,N
1661496035.3,286047000.4,N
1661496055.1,286047000.6,N
1661496075.9,286047000.9,N
1661496095.7,286047002.5,N
1661496115.6,286047002.4,N
1661496135.4,286047002.3,N
1661496155.2,286047004.4,Y
1661496175.1,286047001.8,P
1661496176.0,286047001.8,P
1661496195.8,286047001.7,P
1661496215.7,286047002.0,Y
1661496235.5,286047000.3,P
1661496255.3,286047000.2,N
1661496275.2,286046999.8,N
1661496295.0,286047000.0,N
1661496295.9,286047000.0,N
1661496315.8,286047002.8,Y
1661496335.6,286047000.2,P
1661496355.4,286046999.7,P
1661496375.3,286047000.7,N
1661496395.1,286047000.9,N
1661496415.8,286047000.6,N
1661496435.7,286047000.7,N
1661496455.5,286047000.0,N
1661496475.4,286047000.2,N
1661496495.2,286047000.4,N
1661496515.0,286047000.8,N
1661496515.9,286047000.8,N
1661496535.8,286047000.8,N
1661496555.6,286046998.1,Y
1661496575.4,286046996.6,P
1661496595.3,286046996.6,N
1661496615.1,286046998.1,N
1661496635.9,286046998.8,N
1661496655.7,286046999.0,N
1661496675.5,286046998.1,N
1661496695.4,286047001.1,N
1661496715.2,286047000.7,N
1661496735.0,286047000.6,N
1661496735.9,286047000.6,N
1661496755.8,286047001.1,N
1661496775.6,286046998.5,N
1661496795.5,286046999.3,N
1661496815.3,286046999.2,N
1661496835.1,286046998.2,N
1661496855.9,286046998.3,N
1661496875.7,286046998.3,N
1661496895.5,286046999.3,N
1661496915.4,286046999.5,N
1661496935.2,286046999.2,N
1661496955.1,286046998.1,N
1661496956.0,286046998.1,N
1661496975.8,286047000.7,N
1661496995.6,286046998.6,N
1661497015.5,286047001.2,N
1661497035.3,286046999.1,N
1661497055.2,286046999.3,N
1661497075.9,286046999.0,N
1661497125.8,286046999.6,E
1661497135.7,286046998.9,N
1661497155.5,286046998.8,P
1661497175.4,286046999.2,P
1661497195.2,286046998.8,Y
